CATSAT-2 (44029 NORAD) Tracking and Keplerian Element Data

This shows tracking and keplerian element data for the satellite.

Feedback or suggestion? Click here.




ElementValue
Catalog44029
NameCATSAT-2
Epoch Orbit2658
Epoch Day201.83888095
Epoch Year2019
RAAN190.2717
Inclination51.6385
Eccentricity0.0004367
Argument of Perigee272.5786
Mean Anonmoly87.4705
Mean Motion15.56827105
Decay Rate3.892E-05
L11 44029U 98067PV 19201.83888095 .00003892 00000-0 59990-4 0 9999
L22 44029 51.6385 190.2717 0004367 272.5786 87.4705 15.56827105 26585

Live tracking and technical data element details for CATSAT-2 (NORAD 44029). CATSAT-2 can be tracked NOW for your location showing map with azimuth and elevation plus other details from your city location.

Track the satellite on the map from your city or location and see movement details for azimuth, elevation, latitude, longitude, range, height, and movement on the map or in text.







IsCatalogInMostPopularTable: catalog: 44029, numindb: 62
Update: records affected: 1



GetName: 44029 CATSAT-2

Hit Count: updated at: Sun, 21 Jul 2019 14:43:37 GMT